Location: Columbia
(38.9520°N, 92.3340°W)
Time: 03:35:47
(UTC-05:00)

SL-08 RB Rocket - Visible Passes

Search period start: 02 August 2014 00:00
Search period end: 12 August 2014 00:00
Orbit: 650 x 689 km, 98.1° (Epoch: 01 August)

Date Brightness Start Highest point End Pass type
(mag) Time Alt. Az. Time Alt. Az. Time Alt. Az.
02 Aug 4.0 22:19:09 42° ESE 22:19:52 46° ENE 22:24:10 10° N visible
02 Aug 6.0 23:57:21 15° W 23:57:21 15° W 23:59:46 10° WNW visible
03 Aug 5.9 21:15:25 10° ENE 21:15:57 10° ENE 21:16:28 10° NE visible
03 Aug 3.6 22:52:10 75° SW 22:52:22 77° WSW 22:56:52 10° NNW visible
04 Aug 5.1 21:46:59 20° E 21:48:08 22° ENE 21:51:33 10° NNE visible
04 Aug 5.0 23:25:11 33° W 23:25:11 33° W 23:29:04 10° NNW visible
05 Aug 4.0 22:20:00 45° E 22:20:29 47° ENE 22:24:47 10° N visible
05 Aug 6.1 23:58:12 15° W 23:58:12 15° W 00:00:20 10° WNW visible
06 Aug 5.9 21:15:52 10° ENE 21:16:33 10° ENE 21:17:15 10° NE visible
06 Aug 3.7 22:53:02 75° W 22:53:02 75° W 22:57:29 10° NNW visible
07 Aug 5.1 21:47:51 21° E 21:48:45 22° ENE 21:52:11 10° NNE visible
07 Aug 5.1 23:26:03 32° W 23:26:03 32° W 23:29:40 10° NNW visible
08 Aug 4.0 22:20:52 47° E 22:21:06 48° ENE 22:25:24 10° N visible
08 Aug 6.2 23:59:04 14° W 23:59:04 14° W 00:00:54 10° WNW visible
09 Aug 5.8 21:16:19 10° ENE 21:17:09 11° ENE 21:18:00 10° NE visible
09 Aug 3.8 22:53:53 71° WNW 22:53:53 71° WNW 22:58:05 10° NNW visible
10 Aug 5.0 21:48:42 22° E 21:49:21 22° ENE 21:52:48 10° NNE visible
10 Aug 5.2 23:26:54 30° W 23:26:54 30° W 23:30:15 10° NNW visible
11 Aug 4.0 22:21:43 48° ENE 22:21:43 48° ENE 22:26:00 10° N visible
11 Aug 6.2 23:59:56 14° WNW 23:59:56 14° WNW 00:00:00 14° WNW visible
